| time (UTC) | temp C | wind direction | speed KPH | gust KPH | rain 1hr cm | rain 24hr cm | rain mn cm | humidity % | barometer mb |
| 20260505112215 | 11 | 202 | 1.6 | 3.2 | 0.00 | 0.00 | 0.00 | 66 | 1012.1 |
| 20260505111231 | 12 | 148 | 3.2 | 6.4 | 0.00 | 0.00 | 0.00 | 66 | 1011.9 |
| 20260505110217 | 11 | 158 | 1.6 | 6.4 | 0.00 | 0.00 | 0.00 | 63 | 1011.8 |
| 20260505101315 | 12 | 225 | 1.6 | 3.2 | 0.00 | 0.00 | 0.00 | 59 | 1011.7 |
| 20260505100315 | 12 | 225 | 3.2 | 6.4 | 0.00 | 0.00 | 0.00 | 58 | 1011.9 |
| 20260505100214 | 12 | 225 | 3.2 | 6.4 | 0.00 | 0.00 | 0.00 | 57 | 1011.8 |
| 20260505093217 | 12 | 202 | 1.6 | 3.2 | 0.00 | 0.00 | 0.00 | 61 | 1011.8 |
| 20260505092314 | 11 | 202 | 4.8 | 6.4 | 0.00 | 0.00 | 0.00 | 63 | 1011.8 |
| 20260505091316 | 12 | 202 | 0.0 | 1.6 | 0.00 | 0.00 | 0.00 | 65 | 1011.9 |
| 20260505090315 | 12 | 202 | 3.2 | 4.8 | 0.00 | 0.00 | 0.00 | 65 | 1011.9 |
| 20260505085317 | 11 | 202 | 4.8 | 6.4 | 0.00 | 0.00 | 0.00 | 67 | 1012.0 |
| 20260505084316 | 11 | 184 | 3.2 | 6.4 | 0.00 | 0.00 | 0.00 | 68 | 1012.1 |
| 20260505083316 | 11 | 202 | 4.8 | 8.0 | 0.00 | 0.00 | 0.00 | 69 | 1012.1 |
| 20260505081416 | 11 | 225 | 3.2 | 6.4 | 0.00 | 0.00 | 0.00 | 66 | 1011.9 |
| 20260505080415 | 12 | 202 | 0.0 | 0.0 | 0.00 | 0.00 | 0.00 | 66 | 1012.2 |
| 20260505075417 | 12 | 202 | 3.2 | 6.4 | 0.00 | 0.00 | 0.00 | 65 | 1012.3 |
| 20260505075331 | 12 | 198 | 3.2 | 4.8 | 0.00 | 0.00 | 0.00 | 65 | 1012.3 |
| 20260505073315 | 12 | 168 | 6.4 | 9.7 | 0.00 | 0.00 | 0.00 | 63 | 1012.6 |
| 20260505072316 | 12 | 138 | 8.0 | 9.7 | 0.00 | 0.00 | 0.00 | 62 | 1012.7 |
| 20260505071315 | 12 | 174 | 6.4 | 9.7 | 0.00 | 0.00 | 0.00 | 62 | 1012.8 |
| 20260505070415 | 12 | 157 | 1.6 | 4.8 | 0.00 | 0.00 | 0.00 | 59 | 1012.9 |
| 20260505065415 | 12 | 112 | 4.8 | 8.0 | 0.00 | 0.00 | 0.00 | 55 | 1012.8 |
| 20260505064416 | 12 | 45 | 1.6 | 1.6 | 0.00 | 0.00 | 0.00 | 54 | 1012.9 |
| 20260505063514 | 12 | 247 | 0.0 | 4.8 | 0.00 | 0.00 | 0.00 | 53 | 1012.9 |
| 20260505062531 | 12 | 236 | 6.4 | 9.7 | 0.00 | 0.00 | 0.00 | 53 | 1012.7 |
| 20260505061615 | 13 | 246 | 9.7 | 17.7 | 0.00 | 0.00 | 0.00 | 53 | 1012.6 |
| 20260505060616 | 12 | 234 | 17.7 | 29.0 | 0.00 | 0.00 | 0.00 | 52 | 1012.7 |
| 20260505053624 | 12 | 231 | 25.7 | 40.2 | 0.00 | 0.00 | 0.00 | 55 | 1012.4 |
| 20260505052626 | 12 | 221 | 11.3 | 14.5 | 0.00 | 0.00 | 0.00 | 56 | 1012.8 |
| 20260505051627 | 13 | 225 | 9.7 | 17.7 | 0.00 | 0.00 | 0.00 | 56 | 1012.8 |
| 20260505050625 | 13 | 217 | 16.1 | 25.7 | 0.00 | 0.00 | 0.00 | 54 | 1012.5 |
| 20260505040525 | 15 | 296 | 3.2 | 6.4 | 0.00 | 0.00 | 0.00 | 45 | 1011.6 |
| 20260505035525 | 15 | 245 | 8.0 | 14.5 | 0.00 | 0.00 | 0.00 | 43 | 1011.6 |
| 20260505033526 | 16 | 240 | 8.0 | 14.5 | 0.00 | 0.00 | 0.00 | 42 | 1011.1 |
| 20260505032526 | 16 | 225 | 3.2 | 8.0 | 0.00 | 0.00 | 0.00 | 42 | 1011.1 |
| 20260505031527 | 16 | 232 | 8.0 | 16.1 | 0.00 | 0.00 | 0.00 | 42 | 1010.9 |
| 20260505030524 | 16 | 234 | 11.3 | 19.3 | 0.00 | 0.00 | 0.00 | 41 | 1010.7 |
| 20260505025527 | 16 | 225 | 4.8 | 6.4 | 0.00 | 0.00 | 0.00 | 41 | 1010.7 |
| 20260505023625 | 16 | 177 | 8.0 | 11.3 | 0.00 | 0.00 | 0.00 | 40 | 1010.4 |
| 20260505020628 | 17 | 159 | 16.1 | 22.5 | 0.00 | 0.00 | 0.00 | 41 | 1010.2 |
| 20260505020524 | 17 | 165 | 11.3 | 19.3 | 0.00 | 0.00 | 0.00 | 41 | 1010.2 |
| 20260505015528 | 17 | 184 | 6.4 | 9.7 | 0.00 | 0.00 | 0.00 | 41 | 1010.1 |
| 20260505015442 | 17 | 177 | 9.7 | 11.3 | 0.00 | 0.00 | 0.00 | 42 | 1010.2 |
| 20260505013525 | 17 | 157 | 12.9 | 16.1 | 0.00 | 0.00 | 0.00 | 42 | 1010.0 |
| 20260505012525 | 17 | 155 | 4.8 | 8.0 | 0.00 | 0.00 | 0.00 | 44 | 1010.2 |
| 20260505011526 | 18 | 159 | 12.9 | 19.3 | 0.00 | 0.00 | 0.00 | 40 | 1010.2 |
| 20260505010526 | 19 | 137 | 11.3 | 16.1 | 0.00 | 0.00 | 0.00 | 33 | 1010.0 |
| 20260505005525 | 20 | 182 | 14.5 | 19.3 | 0.00 | 0.00 | 0.00 | 29 | 1009.8 |
| 20260505004624 | 20 | 172 | 4.8 | 8.0 | 0.00 | 0.00 | 0.00 | 28 | 1009.9 |
| 20260505003625 | 20 | 185 | 4.8 | 8.0 | 0.00 | 0.00 | 0.00 | 28 | 1010.0 |
| 20260505002628 | 20 | 180 | 4.8 | 6.4 | 0.00 | 0.00 | 0.00 | 27 | 1010.0 |
| 20260505000625 | 20 | 159 | 6.4 | 12.9 | 0.00 | 0.00 | 0.00 | 27 | 1010.0 |
| 20260504235627 | 20 | 175 | 6.4 | 11.3 | 0.00 | 0.00 | 0.00 | 26 | 1010.0 |
| 20260504235525 | 20 | 158 | 4.8 | 9.7 | 0.00 | 0.00 | 0.00 | 26 | 1010.0 |
| 20260504234542 | 20 | 270 | 0.0 | 0.0 | 0.00 | 0.00 | 0.00 | 26 | 1010.1 |
| 20260504232624 | 20 | 315 | 3.2 | 6.4 | 0.00 | 0.00 | 0.00 | 28 | 1010.0 |
| 20260504231626 | 19 | 317 | 0.0 | 8.0 | 0.00 | 0.00 | 0.00 | 28 | 1010.0 |
| 20260504230644 | 19 | 315 | 0.0 | 6.4 | 0.00 | 0.00 | 0.00 | 28 | 1009.8 |
| 20260504225626 | 20 | 275 | 6.4 | 11.3 | 0.00 | 0.00 | 0.00 | 28 | 1010.1 |
| 20260504224724 | 20 | 319 | 4.8 | 11.3 | 0.00 | 0.00 | 0.00 | 28 | 1010.1 |
| 20260504223727 | 20 | 299 | 8.0 | 14.5 | 0.00 | 0.00 | 0.00 | 29 | 1010.1 |
| 20260504222741 | 21 | 322 | 4.8 | 14.5 | 0.00 | 0.00 | 0.00 | 28 | 1010.1 |
| 20260504221824 | 21 | 287 | 8.0 | 14.5 | 0.00 | 0.00 | 0.00 | 28 | 1010.2 |
| 20260504215924 | 21 | 308 | 4.8 | 12.9 | 0.00 | 0.00 | 0.00 | 27 | 1009.9 |
| 20260504214925 | 21 | 309 | 1.6 | 6.4 | 0.00 | 0.00 | 0.00 | 27 | 1010.2 |
| 20260504213928 | 21 | 297 | 3.2 | 9.7 | 0.00 | 0.00 | 0.00 | 30 | 1010.3 |
| 20260504212926 | 20 | 325 | 3.2 | 11.3 | 0.00 | 0.00 | 0.00 | 31 | 1010.5 |
| 20260504211927 | 20 | 325 | 3.2 | 11.3 | 0.00 | 0.00 | 0.00 | 31 | 1010.5 |
| 20260504210927 | 20 | 316 | 4.8 | 9.7 | 0.00 | 0.00 | 0.00 | 31 | 1010.6 |
| 20260504205942 | 20 | 321 | 6.4 | 19.3 | 0.00 | 0.00 | 0.00 | 29 | 1010.7 |
| 20260504205025 | 20 | 192 | 6.4 | 12.9 | 0.00 | 0.00 | 0.00 | 31 | 1010.9 |
| 20260504204941 | 20 | 227 | 6.4 | 9.7 | 0.00 | 0.00 | 0.00 | 31 | 1010.9 |
| 20260504203927 | 20 | 188 | 8.0 | 11.3 | 0.00 | 0.00 | 0.00 | 33 | 1010.7 |
| 20260504202926 | 20 | 170 | 11.3 | 17.7 | 0.00 | 0.00 | 0.00 | 34 | 1010.7 |
| 20260504201925 | 20 | 161 | 11.3 | 14.5 | 0.00 | 0.00 | 0.00 | 32 | 1010.8 |
| 20260504200025 | 20 | 166 | 12.9 | 16.1 | 0.00 | 0.00 | 0.00 | 30 | 1010.9 |
| 20260504195041 | 21 | 161 | 11.3 | 16.1 | 0.00 | 0.00 | 0.00 | 29 | 1011.0 |
| 20260504194126 | 21 | 127 | 9.7 | 14.5 | 0.00 | 0.00 | 0.00 | 29 | 1011.1 |
| 20260504193127 | 21 | 148 | 9.7 | 19.3 | 0.00 | 0.00 | 0.00 | 31 | 1011.1 |
| 20260504192125 | 21 | 161 | 14.5 | 20.9 | 0.00 | 0.00 | 0.00 | 31 | 1011.2 |
| 20260504191026 | 20 | 154 | 11.3 | 20.9 | 0.00 | 0.00 | 0.00 | 31 | 1011.2 |
| 20260504190126 | 20 | 153 | 14.5 | 24.1 | 0.00 | 0.00 | 0.00 | 30 | 1011.4 |
| 20260504185126 | 21 | 135 | 9.7 | 16.1 | 0.00 | 0.00 | 0.00 | 31 | 1011.6 |
| 20260504184141 | 20 | 138 | 9.7 | 16.1 | 0.00 | 0.00 | 0.00 | 31 | 1011.8 |
| 20260504183226 | 20 | 132 | 11.3 | 17.7 | 0.00 | 0.00 | 0.00 | 31 | 1011.7 |
| 20260504182226 | 20 | 140 | 8.0 | 14.5 | 0.00 | 0.00 | 0.00 | 31 | 1012.0 |
| 20260504180324 | 20 | 141 | 9.7 | 14.5 | 0.00 | 0.00 | 0.00 | 32 | 1012.2 |
| 20260504175326 | 20 | 150 | 8.0 | 14.5 | 0.00 | 0.00 | 0.00 | 32 | 1012.3 |
| 20260504174325 | 19 | 126 | 9.7 | 16.1 | 0.00 | 0.00 | 0.00 | 35 | 1012.6 |
| 20260504173341 | 19 | 136 | 8.0 | 12.9 | 0.00 | 0.00 | 0.00 | 35 | 1012.6 |
| 20260504172426 | 19 | 133 | 6.4 | 11.3 | 0.00 | 0.00 | 0.00 | 33 | 1012.7 |
| 20260504170426 | 19 | 140 | 6.4 | 11.3 | 0.00 | 0.00 | 0.00 | 35 | 1013.0 |
| 20260504150642 | 16 | 174 | 1.6 | 4.8 | 0.00 | 0.00 | 0.00 | 44 | 1013.5 |
| 20260504140543 | 13 | 225 | 1.6 | 4.8 | 0.00 | 0.00 | 0.00 | 57 | 1013.7 |